CW0230 Weather Reports


Display with metric or nautical units.
time (UTC)temp
F
wind
direction
speed
MPH
gust
MPH
rain 1hr
in
rain 24hr
in
rain mn
in
humidity
%
barometer
mb
20260503010504 52 299 1.0 3.0 0.00 0.23 0.00 96 1010.1
20260503004005 52 285 0.0 2.0 0.00 0.23 0.00 95 1010.4
20260503001504 52 292 0.0 1.0 0.00 0.23 0.00 94 1010.5
20260503001005 52 292 0.0 1.0 0.00 0.23 0.00 94 1010.5
20260503000505 53 292 0.0 1.0 0.00 0.23 0.00 94 1010.6
20260503000005 53 292 0.0 1.0 0.00 0.23 0.00 94 1010.6
20260502235504 53 292 1.0 1.0 0.00 0.23 0.00 94 1010.7
20260502234505 53 292 0.0 1.0 0.00 0.23 0.00 95 1010.6
20260502234004 53 292 0.0 1.0 0.00 0.23 0.00 95 1010.6
20260502232504 54 292 0.0 2.0 0.00 0.23 0.00 95 1010.9
20260502232005 54 292 0.0 2.0 0.00 0.23 0.00 95 1011.0
20260502231005 54 316 0.0 2.0 0.00 0.23 0.00 95 1010.9
20260502230504 54 316 1.0 3.0 0.00 0.23 0.00 95 1010.9
20260502225504 54 292 1.0 2.0 0.00 0.23 0.23 95 1010.8
20260502224004 54 265 1.0 3.0 0.00 0.23 0.23 95 1010.8
20260502223504 54 276 1.0 2.0 0.00 0.23 0.23 95 1010.9
20260502222504 54 307 0.0 0.0 0.00 0.23 0.23 95 1011.0
20260502215504 54 304 1.0 2.0 0.00 0.23 0.23 95 1011.1
20260502214505 54 304 0.0 1.0 0.00 0.23 0.23 95 1011.1
20260502213504 54 304 1.0 2.0 0.00 0.23 0.23 95 1011.1
20260502213005 54 304 0.0 2.0 0.00 0.23 0.23 94 1011.1
20260502212504 54 306 1.0 2.0 0.00 0.23 0.23 95 1011.1
20260502211004 54 318 1.0 3.0 0.00 0.23 0.23 94 1011.1
20260502210504 54 329 0.0 3.0 0.00 0.23 0.23 94 1011.0
20260502210004 54 327 1.0 3.0 0.00 0.23 0.23 94 1011.1
20260502205005 54 286 1.0 3.0 0.00 0.23 0.23 94 1011.1
20260502204005 54 317 2.0 3.0 0.00 0.23 0.23 94 1011.0
20260502203505 54 317 1.0 3.0 0.00 0.23 0.23 94 1011.0
20260502202005 54 330 2.0 3.0 0.00 0.23 0.23 94 1011.0
20260502201505 54 341 2.0 3.0 0.00 0.23 0.23 94 1011.0
20260502201004 55 330 2.0 5.0 0.00 0.23 0.23 94 1011.0
20260502195505 55 332 2.0 3.0 0.00 0.23 0.23 94 1011.1
20260502195004 55 308 1.0 3.0 0.00 0.23 0.23 94 1011.1
20260502194004 55 291 0.0 2.0 0.00 0.23 0.23 94 1011.3
20260502192505 55 156 0.0 2.0 0.00 0.23 0.23 93 1011.2
20260502192005 55 156 0.0 2.0 0.00 0.23 0.23 93 1011.3
20260502190505 55 153 0.0 2.0 0.00 0.23 0.23 94 1011.4
20260502185504 55 153 0.0 2.0 0.00 0.23 0.23 94 1011.3
20260502184005 55 153 0.0 2.0 0.00 0.23 0.23 93 1011.3
20260502182005 55 153 1.0 2.0 0.00 0.23 0.23 93 1011.3
20260502181504 55 153 0.0 3.0 0.00 0.23 0.23 93 1011.4
20260502181004 55 156 1.0 3.0 0.00 0.23 0.23 93 1011.4
20260502170504 55 119 1.0 2.0 0.01 0.23 0.23 93 1011.9
20260502162504 55 105 1.0 3.0 0.02 0.22 0.22 92 1012.2
20260502162005 55 105 2.0 3.0 0.04 0.22 0.22 92 1012.2
20260502161504 55 117 1.0 3.0 0.06 0.22 0.22 92 1012.3
20260502161004 55 135 1.0 3.0 0.06 0.22 0.22 92 1012.4
20260502160505 55 218 0.0 1.0 0.06 0.22 0.22 92 1012.4
20260502152005 56 103 1.0 3.0 0.11 0.18 0.18 90 1012.8
20260502151504 56 110 1.0 3.0 0.10 0.16 0.16 90 1013.0
20260502122504 64 134 3.0 6.0 0.00 0.00 0.00 66 1014.8
20260502122004 64 93 3.0 6.0 0.00 0.00 0.00 65 1014.9
20260502121505 64 108 2.0 5.0 0.00 0.00 0.00 66 1014.9
20260502120504 64 154 2.0 7.0 0.00 0.00 0.00 67 1015.1
20260502114504 64 151 4.0 8.0 0.00 0.00 0.00 66 1015.4
20260502113505 64 173 4.0 7.0 0.00 0.00 0.00 68 1015.6
20260502113005 63 182 1.0 6.0 0.00 0.00 0.00 68 1015.6
20260502112505 63 110 2.0 5.0 0.00 0.00 0.00 69 1015.7
20260502112004 63 114 3.0 5.0 0.00 0.00 0.00 69 1015.7
20260502110505 63 114 2.0 7.0 0.00 0.00 0.00 68 1015.9
20260502105505 64 45 2.0 7.0 0.00 0.00 0.00 68 1016.0
20260502102504 63 117 3.0 7.0 0.00 0.01 0.00 69 1016.3
20260502101504 64 157 1.0 5.0 0.00 0.01 0.00 68 1016.5
20260502091005 61 154 3.0 6.0 0.00 0.01 0.00 70 1017.1
20260502071504 52 181 2.0 3.0 0.00 0.01 0.00 94 1018.0
20260502071005 51 165 1.0 3.0 0.00 0.01 0.00 95 1018.0
20260502070504 50 205 1.0 2.0 0.00 0.01 0.00 96 1018.0
20260502070005 49 205 1.0 2.0 0.00 0.01 0.00 95 1018.0
20260502065506 49 205 0.0 1.0 0.00 0.01 0.00 95 1017.9
20260502065004 48 207 0.0 1.0 0.00 0.01 0.00 95 1018.0
20260502063504 48 219 0.0 1.0 0.00 0.01 0.00 95 1018.0
20260502062504 47 219 0.0 1.0 0.00 0.01 0.00 95 1018.1
20260502062004 47 219 0.0 2.0 0.00 0.01 0.00 95 1018.1
20260502060504 47 225 0.0 1.0 0.00 0.01 0.00 95 1018.0
20260502054504 47 230 0.0 1.0 0.00 0.01 0.00 95 1018.2
20260502053005 46 230 0.0 1.0 0.00 0.01 0.00 95 1018.3
20260502052004 46 230 0.0 0.0 0.00 0.01 0.00 95 1018.3
20260502051504 46 230 0.0 0.0 0.00 0.01 0.00 95 1018.3
20260502051005 46 230 0.0 0.0 0.00 0.01 0.00 94 1018.2
20260502044504 46 180 0.0 2.0 0.00 0.01 0.00 94 1018.2
20260502044004 46 180 1.0 1.0 0.00 0.01 0.00 94 1018.2
20260502043504 46 180 0.0 1.0 0.00 0.01 0.00 94 1018.1
20260502043005 46 180 0.0 1.0 0.00 0.01 0.00 94 1018.2
20260502042004 46 180 0.0 0.0 0.00 0.01 0.00 94 1018.2
20260502034505 47 180 0.0 0.0 0.00 0.01 0.00 94 1018.3
20260502033004 47 180 0.0 3.0 0.00 0.01 0.00 94 1018.6
20260502031504 46 218 0.0 1.0 0.00 0.01 0.00 94 1018.7
20260502030504 46 218 0.0 1.0 0.00 0.01 0.00 94 1018.7
20260502025004 46 218 0.0 0.0 0.00 0.01 0.00 93 1018.8
20260502024504 46 218 0.0 0.0 0.00 0.01 0.00 93 1018.8
20260502024004 46 218 0.0 0.0 0.00 0.01 0.00 93 1018.9
20260502021005 47 218 0.0 3.0 0.00 0.01 0.00 93 1019.2
20260502020505 47 218 0.0 3.0 0.00 0.01 0.00 93 1019.3
20260502015504 47 218 0.0 1.0 0.00 0.01 0.00 93 1019.3
20260502015005 48 218 0.0 2.0 0.00 0.01 0.00 92 1019.3
20260502014504 48 218 0.0 2.0 0.00 0.01 0.00 92 1019.3
20260502014004 48 218 1.0 2.0 0.00 0.01 0.00 92 1019.3
20260502011004 49 218 0.0 0.0 0.00 0.01 0.00 92 1019.5